NOAA 17 DEB

Satellite information

Favourite Embed

Satellite Type and Status

DEBRISIN ORBIT

Key statistics

Satellite NOAA 17 DEB at a glance.

Uptime

8573

Days in orbit

Revolutions

≈ 14.5

Per day

Orbit

SSO

Sun Synchronous Orbit

Inclination

98.7

Latest

Satellite identification and parameters

Extended collection of information and parameters for NOAA 17 DEB.

Object identification

Identified? True

Debris? True

Object name: NOAA 17 DEB

International designator: 2002-032BJ

Object number (NORAD): 48725

Object ID (CCSDS): 48725

Country: UNITED STATES OF AMERICA (US)

Current information (Y/N): Y

RCS size: SMALL

Orbital parameters

Period: 99.557 minutes

Inclination: 98.7026 deg

SMA: 7115.551 km

Apoapsis: 774.1 km

Periapsis: 700.731 km

RAAN: 284.7369 deg

Eccentricy: 0.00515556

Argument of periapsis: 185.5062 deg

Mean anomaly: 174.5569 deg

Mean motion: 14.4640525 rev/day

Mean motion (dot): 0.00023403 rev/day2

B* drag term: 0.0063999371 1/REarth

Two-line elements (TLE)

Creation date: Dec. 10, 2025, 10:40 a.m.

Reference frame: TEME

Reference center: EARTH

Epoch: Dec. 9, 2025, 7:06 p.m. UTC

TLE line 0: 0 NOAA 17 DEB

TLE line 1: 1 48725U 02032BJ 25343.79629855 .00023403 00000-0 63999-2 0 9991

TLE line 2: 2 48725 98.7026 284.7369 0051556 185.5062 174.5569 14.46405250245366

Live tracking on map

Real-time ground track for satellite NOAA 17 DEB.

In-orbit conjunctions

A list of the most updated potential collisions computed for object NOAA 17 DEB.

Target Orbit TCA Probability of collision Miss distance Type
CZ-4C R/B SSO 2025-10-04 10:10:15 0.0001332012 640.0 (m) ROCKET BODY
TRIAD 1 SSO 2025-04-14 08:09:33 0.0001007061 513.0 (m) PAYLOAD
NOAA 8 SSO 2025-02-28 03:33:19 0.0001802185 803.0 (m) PAYLOAD
COSMOS 494 LEO 2024-11-11 11:18:38 0.0001485444 512.0 (m) PAYLOAD
NOAA 16 DEB SSO 2024-11-08 22:14:39 0.0001073004 268.0 (m) DEBRIS

Associated space launch

NOAA M carried weather imagers and microwave and infrared sounders, as well as a SARSAT search-and-rescue package. It had an on-orbit mass of 1475 kg.

NOAA 17 DEB was lifted into orbit during the mission ‘Titan II SLV | NOAA 17’, on board a Titan II SLV space rocket.

The launch took place on June 24, 2002, 6:23 p.m. from Space Launch Complex 4W.

For more information about the launch, click the button.

Launch to space Titan II SLV | NOAA 17
Titan II SLV | NOAA 17

Agency: N/A

Status: Launch Successful

Launch date: June 24, 2002, 6:23 p.m. UTC

Rocket: Titan II SLV

Launch pad: Space Launch Complex 4W

Location: Vandenberg SFB, CA, USA

...

Latest news about this satellite

There are no fresh news available about this satellite. Check back as we update our databases every day.


Newsletter sign-up

Weekly statistics, charts and insights to help you stay on top of the space industry.